Voltar ao catálogo

CZ-6A DEB

AtivoPO
NORAD 61110·DEBRIS·🇨🇳 China

Lançado Aug 6, 2024 de Taiyuan Satellite Launch Center

Loading…

Próximas Passagens (próximas 24 horas)

TLE

AtualizadoSource: Space-Track

Época: Sep 14, 2026, 01:01 UTC

1 61110U 24140PC  26257.04280231  .00001001  00000-0  54265-3 0  9999
2 61110  89.0350 270.0065 0117698 334.4400  25.0992 14.08306630104122

Acompanhe CZ-6A DEB em tempo real com AllMySat

Download on the App Store